Wind_Speed
21 22 22 23 23 24 25 26 27 28 29 30 30 30 30 30 29 28 28 29 28 27 30 31 29 30 32 31 31 31 32 32 32 33 34 35 35 35 36 36 36 36 36 35 34 32 32 32 33 33 34 36 37 37 38 38 39 39 38 37 35 31 30 30 30 32 35 37 39 40 40 39 39 38
21 21 22 23 23 24 25 26 27 28 29 29 28 28 28 29 29 29 28 29 29 27 27 29 29 29 30 30 31 31 32 32 32 32 33 35 36 37 37 37 38 38 38 37 36 34 32 31 31 32 33 34 36 38 38 39 40 40 40 39 38 35 33 32 31 31 33 35 38 40 40 40 40 40
21 21 22 22 23 23 24 25 26 27 27 27 27 27 28 28 28 28 28 29 30 30 29 29 30 30 31 32 33 34 34 35 35 35 35 35 36 37 38 38 39 39 40 40 39 37 35 33 31 31 31 32 33 35 38 39 40 41 41 41 40 38 37 36 34 33 32 33 36 39 39 40 41 42
20 21 21 21 21 22 23 24 24 25 25 26 27 27 27 27 27 27 28 28 29 31 31 32 33 33 33 34 35 35 36 37 37 37 37 37 37 37 37 38 38 39 39 40 40 39 36 34 32 30 30 30 30 32 35 38 40 41 42 42 41 41 40 39 37 35 33 32 34 37 40 40 40 41
19 19 19 19 20 21 22 22 23 23 24 24 25 26 26 27 27 27 28 28 28 30 31 32 34 35 35 35 35 35 35 35 36 37 37 37 37 37 37 37 37 37 38 38 38 38 36 34 32 30 29 29 30 30 31 34 37 40 42 43 43 42 41 40 39 38 36 34 34 36 38 39 38 39
18 17 17 18 19 20 20 21 21 22 23 23 24 25 27 27 28 28 28 28 29 30 30 31 32 33 34 34 34 34 34 35 35 36 36 37 37 38 37 37 36 36 36 36 35 35 35 34 33 31 29 29 29 29 29 30 33 37 40 42 44 44 43 41 40 39 38 37 36 36 37 38 38 38
16 16 16 17 18 18 19 19 20 21 22 23 24 25 26 27 28 28 29 29 29 30 30 30 31 31 31 32 32 33 34 35 36 36 35 35 35 35 36 35 35 35 36 36 35 34 33 34 34 33 31 30 29 29 29 30 30 32 36 40 43 44 44 43 42 41 40 38 38 38 37 38 38 37
14 15 15 16 16 17 18 18 19 20 21 22 23 24 25 26 27 28 28 29 29 29 29 29 30 30 30 31 32 33 33 34 34 35 35 34 32 31 31 32 31 32 34 35 35 35 34 34 34 34 34 32 30 28 29 30 30 30 32 35 40 43 44 45 44 43 42 39 38 39 38 37 37 37
13 13 14 14 15 16 17 18 19 20 21 22 22 23 24 25 26 27 27 28 28 29 29 28 29 29 30 31 32 33 34 34 33 33 34 34 33 32 30 29 29 29 30 33 34 34 34 34 34 35 34 33 31 29 28 29 30 30 30 31 35 40 43 45 45 44 44 41 39 40 39 39 38 37
11 12 12 13 15 16 17 18 19 20 20 21 22 23 23 24 24 25 25 26 27 27 28 28 28 29 30 32 33 34 35 36 35 34 33 32 33 33 31 29 28 28 28 30 32 33 33 34 33 33 33 33 31 29 28 29 29 30 30 30 31 35 40 44 45 44 43 42 41 41 40 40 39 38
10 11 12 13 14 16 17 18 18 19 20 21 22 22 23 23 23 23 24 25 25 26 26 27 29 30 32 33 34 34 35 36 37 37 37 35 33 33 32 30 28 27 26 27 30 31 32 33 32 31 31 31 30 28 27 28 29 29 30 31 30 31 35 41 45 45 44 43 42 42 42 41 39 38
9 10 11 13 14 15 16 17 18 18 20 20 21 21 21 21 22 22 23 24 25 25 26 28 30 31 32 33 34 34 35 36 38 40 40 39 37 35 34 32 30 28 27 27 27 28 28 30 31 30 29 29 29 28 26 25 26 28 29 30 30 29 31 37 43 46 46 45 43 42 42 42 41 40
9 10 11 13 14 15 16 16 17 18 19 19 19 19 20 20 21 22 23 24 25 26 27 29 31 32 33 33 34 35 37 39 41 42 42 41 40 38 36 35 33 32 31 30 30 29 25 24 26 27 28 28 27 27 26 24 23 25 27 29 30 29 29 33 40 45 46 46 45 44 42 43 43 40
9 10 12 14 15 16 16 16 17 18 19 19 18 18 18 19 21 22 23 24 25 27 28 30 32 33 34 35 36 38 39 40 42 43 43 43 42 40 38 36 35 34 34 35 35 34 29 24 22 23 24 25 25 25 26 25 22 22 25 27 29 29 28 29 35 43 46 47 47 45 43 43 43 39
9 11 13 14 14 15 15 16 17 18 18 18 18 18 19 20 21 22 23 24 26 27 29 31 32 33 35 36 37 38 38 40 41 42 43 43 43 42 41 39 38 37 37 37 37 36 34 30 26 24 21 21 22 22 23 24 23 22 22 25 27 28 28 27 30 38 45 47 47 46 44 42 42 41
10 12 13 13 14 14 14 15 16 17 17 16 17 18 20 21 22 24 25 26 27 29 30 31 32 33 35 35 36 37 38 39 40 41 42 42 43 43 43 42 42 41 40 39 37 37 36 33 30 28 24 20 20 20 21 21 23 23 23 23 26 28 28 27 27 32 41 46 48 47 45 42 40 41
10 12 12 13 13 13 13 14 15 15 15 16 17 19 21 22 24 25 26 27 28 30 31 32 33 33 34 35 36 37 38 39 40 41 41 42 43 43 43 43 43 42 41 40 38 38 37 35 33 32 29 24 21 20 20 20 21 22 23 24 25 27 28 28 27 28 36 44 47 47 46 42 40 41
10 12 12 12 11 11 12 13 14 14 14 16 18 20 21 22 23 24 25 27 28 30 31 32 32 33 33 34 35 36 38 39 40 41 42 43 43 42 42 41 40 40 40 40 39 38 38 38 37 36 36 33 28 24 21 20 19 19 21 23 24 26 27 28 27 27 31 39 44 46 46 43 40 39
10 11 11 10 10 11 12 12 12 13 15 17 19 20 21 22 23 24 25 27 28 30 31 32 33 33 34 35 35 36 37 39 40 41 42 42 42 42 42 40 38 38 38 39 38 37 37 40 41 41 41 39 35 30 26 23 20 18 18 19 22 24 27 28 27 26 28 34 40 43 44 43 40 37
9 9 9 9 9 10 11 11 12 13 15 18 19 20 22 23 24 24 26 28 29 30 32 32 33 34 35 36 36 37 38 38 39 40 40 41 41 42 43 42 42 41 40 40 40 39 38 38 40 41 42 40 38 34 30 27 24 21 18 17 18 21 24 27 27 25 25 30 36 39 41 42 40 37
8 8 8 8 8 9 9 10 11 13 15 17 19 20 21 23 24 25 27 28 30 31 32 33 33 34 34 35 36 37 38 39 39 40 41 42 43 43 43 44 45 45 43 43 42 42 40 37 37 38 39 40 40 38 34 31 27 24 20 17 16 17 20 24 25 24 23 27 33 36 37 39 39 38
7 7 7 7 7 8 8 9 11 13 15 16 17 18 20 21 22 24 26 27 29 30 31 32 32 33 34 35 36 37 38 39 40 41 42 43 44 45 45 45 45 44 45 45 44 43 42 41 39 37 36 38 40 38 35 33 30 25 21 17 15 15 17 21 23 23 23 24 30 33 33 34 37 38
6 6 5 5 6 7 8 9 10 12 14 15 16 17 19 20 21 23 25 26 28 29 30 31 31 32 33 34 35 36 37 38 39 41 42 43 44 45 46 46 46 46 47 47 47 45 46 46 46 43 40 38 39 38 35 33 32 28 22 17 15 15 17 19 21 22 22 23 27 31 29 29 33 36
5 4 4 4 6 6 7 8 10 12 13 14 16 17 18 20 21 23 25 26 28 28 29 30 31 32 32 33 34 35 36 38 39 40 41 42 43 44 45 45 46 47 47 47 47 46 47 47 48 48 45 42 40 39 36 33 31 31 28 22 16 13 15 18 20 21 21 21 25 29 28 27 29 31
3 2 2 4 5 6 7 8 10 11 13 14 15 16 18 19 21 23 25 26 27 27 28 29 30 31 31 32 33 35 36 38 39 40 40 41 42 43 44 44 45 45 45 45 46 46 46 47 48 48 47 44 41 38 37 34 32 32 33 30 23 14 9 12 16 18 19 19 24 28 28 27 27 29
1 1 3 4 5 5 6 7 9 11 12 13 15 16 18 19 21 23 24 25 26 27 27 28 29 30 31 32 33 34 36 37 38 40 40 41 41 41 42 43 44 44 44 44 45 45 46 46 47 48 48 47 44 40 38 37 35 33 31 32 30 24 14 3 6 12 16 18 21 25 27 28 28 29
0 2 3 4 4 5 5 7 8 10 11 13 14 16 18 19 21 23 24 25 26 27 28 28 29 30 31 32 33 34 35 36 37 38 39 39 40 40 40 40 41 42 43 43 43 44 45 45 46 47 47 48 47 45 43 41 38 35 32 31 32 31 25 17 7 3 9 14 18 21 23 25 26 27
2 3 4 4 4 4 5 6 8 9 10 12 14 15 17 19 21 22 24 25 26 27 28 29 30 31 32 33 34 35 35 35 35 35 35 35 37 38 39 39 39 39 39 40 41 42 43 44 44 45 45 46 46 46 46 44 41 37 34 32 31 31 30 27 19 11 5 4 12 17 20 21 23 25
3 4 4 4 4 4 4 5 6 8 10 11 13 15 17 19 20 22 23 25 26 27 29 30 31 32 33 34 35 35 35 34 33 33 33 32 33 34 35 36 38 39 39 39 40 40 41 42 42 43 43 44 44 43 44 44 43 41 37 35 33 31 30 30 26 21 17 10 1 6 12 15 18 23
4 5 5 4 4 3 3 4 5 7 9 10 12 14 16 18 21 22 24 25 26 27 29 30 31 33 34 34 35 35 34 34 34 34 33 33 32 32 32 33 34 36 38 39 39 40 40 40 41 41 41 41 41 41 42 42 42 42 40 38 35 32 30 30 28 25 23 19 15 9 4 6 11 16
6 6 5 4 3 2 1 3 4 6 8 10 12 15 17 19 21 22 24 25 26 27 29 30 31 33 33 34 35 35 35 35 34 34 34 34 34 33 32 31 30 31 32 34 36 38 39 39 39 40 40 40 40 40 40 40 40 41 41 40 38 36 33 31 28 26 25 23 20 18 15 10 6 9
7 7 6 5 3 1 1 2 4 6 8 11 13 16 18 20 21 23 24 25 26 28 29 30 31 32 33 34 34 35 35 35 35 35 34 34 34 34 33 32 31 30 29 29 30 32 34 36 37 37 38 38 38 38 37 37 38 39 40 40 40 38 36 34 31 29 27 23 21 20 19 16 11 7
8 7 6 5 4 2 2 3 5 7 9 12 14 17 18 20 22 23 24 25 26 28 29 30 31 32 33 34 34 34 35 35 35 35 35 35 34 34 33 33 32 31 30 29 28 27 28 30 32 33 34 34 35 35 36 36 37 37 38 38 38 38 37 36 35 33 29 25 22 21 20 19 16 12
8 8 7 5 4 4 4 5 6 8 11 13 15 17 19 21 22 23 24 26 27 28 29 30 31 32 33 34 34 34 34 34 35 35 34 34 34 34 33 33 32 31 31 30 29 28 26 25 26 28 30 31 32 33 34 35 36 36 36 36 36 36 36 36 35 34 32 28 25 22 20 19 18 16
9 8 7 6 6 5 5 6 8 10 12 14 16 18 20 21 23 24 25 26 27 29 30 30 31 32 33 34 34 35 35 34 34 34 33 33 32 32 32 32 32 31 31 30 30 30 29 27 26 25 26 27 29 30 31 33 34 34 35 35 35 35 35 35 34 34 32 30 28 24 21 20 19 18
9 8 8 7 7 7 7 8 9 11 13 15 17 19 21 22 24 25 26 26 27 29 30 30 31 32 33 33 34 35 35 34 34 34 33 32 31 30 29 29 29 30 30 30 30 30 30 30 30 28 27 26 27 28 30 31 31 32 33 34 34 34 34 33 32 31 31 31 30 28 25 23 21 19
9 9 8 8 8 8 9 9 11 12 14 16 18 20 21 23 24 25 26 27 28 29 30 31 32 32 33 34 34 34 34 34 33 33 32 32 31 30 28 27 27 27 28 28 29 29 30 30 30 31 30 29 28 28 29 29 29 30 31 32 32 32 33 32 31 30 30 30 29 28 27 26 24 22
9 9 9 9 9 9 10 11 12 14 16 18 19 21 23 24 25 26 26 27 28 30 31 32 32 33 33 33 33 34 34 33 33 32 32 31 31 29 28 27 26 26 26 27 27 28 28 29 30 30 31 31 31 31 31 31 31 31 30 30 30 30 30 30 31 31 30 29 29 28 27 27 25 24
10 10 10 10 11 11 12 13 14 15 17 19 20 22 23 24 25 26 27 28 29 30 31 31 32 32 32 32 32 32 32 32 32 32 31 30 30 29 28 27 25 25 24 25 26 26 27 28 29 30 30 31 32 32 31 31 31 30 29 28 28 29 29 28 29 29 29 29 28 27 27 26 25 24
10 11 11 11 12 12 13 14 15 17 19 20 22 23 24 25 26 26 27 28 29 30 30 31 31 31 31 32 31 31 30 30 30 30 29 28 27 27 26 25 24 24 23 24 25 25 27 28 29 29 30 29 29 28 27 27 27 29 30 29 29 28 28 28 27 27 27 27 27 26 26 25 24 22
11 11 11 12 12 13 14 15 17 18 20 21 22 24 25 26 26 27 27 29 29 29 29 30 30 31 31 31 30 30 29 28 27 27 26 25 24 24 24 23 23 22 22 23 24 25 26 27 28 28 28 27 27 27 27 27 27 27 27 28 27 27 27 27 26 26 26 26 25 25 25 24 23 22
11 11 12 13 13 14 16 17 18 19 21 22 23 25 25 26 26 27 28 28 29 29 29 29 30 30 30 29 28 28 27 27 26 25 25 24 23 22 22 21 22 22 22 22 23 25 26 27 28 28 28 29 29 29 28 28 28 27 26 26 26 26 26 26 26 26 25 24 24 24 23 23 23 22
12 12 13 14 15 16 17 18 19 20 21 23 24 25 26 26 26 27 28 28 29 29 29 30 30 29 29 28 26 26 25 25 25 25 24 24 24 24 23 23 23 24 25 25 24 25 26 27 28 29 30 31 32 31 30 30 29 29 28 27 27 26 25 25 25 25 24 24 23 23 23 23 22 22
12 13 14 15 16 17 18 19 20 21 22 24 24 25 26 27 27 27 27 27 28 28 28 28 29 28 28 27 26 25 24 25 25 25 25 24 25 25 26 26 26 27 28 29 30 29 29 30 31 32 32 33 34 34 34 34 33 32 31 30 29 28 27 26 25 25 25 25 23 22 22 22 22 22
13 14 15 16 17 18 19 20 21 22 23 24 25 26 27 28 28 27 27 27 27 27 27 27 27 27 27 26 26 25 25 25 25 25 25 25 26 27 27 29 30 30 31 32 34 34 34 34 35 35 36 36 36 37 37 37 37 37 35 33 31 30 30 29 27 26 26 26 26 25 23 22 21 21
Wind_Direction
313 313 314 314 315 316 318 319 321 322 324 324 325 325 326 327 329 331 328 325 327 329 324 324 327 325 323 325 324 322 321 320 320 319 317 315 314 312 310 308 306 304 302 300 298 294 290 287 284 279 272 266 261 256 252 251 251 252 253 255 258 255 251 251 250 247 244 242 239 236 232 230 231 233
314 314 315 316 318 319 321 323 324 325 326 326 327 328 330 332 332 334 335 331 330 333 331 328 329 329 327 328 328 327 326 324 323 322 320 317 315 313 311 309 307 305 303 301 299 297 293 289 286 283 279 272 266 260 254 251 250 251 251 252 254 254 252 250 250 249 246 243 242 241 237 233 232 232
315 316 317 319 321 323 325 327 327 328 328 328 330 333 334 336 336 336 339 337 334 336 337 336 335 335 334 334 334 333 331 329 327 325 322 319 316 314 311 309 307 305 304 302 300 298 296 293 289 285 282 278 272 266 259 254 250 249 250 250 251 251 251 250 250 249 247 244 243 244 242 240 236 232
317 319 322 323 324 327 328 329 330 331 331 332 334 336 337 337 338 339 340 341 340 339 341 340 339 339 339 338 337 336 334 332 330 328 325 322 319 315 312 309 306 304 302 301 301 300 298 297 294 289 284 281 277 271 265 258 253 249 247 248 249 250 250 250 249 249 247 246 244 243 243 244 242 235
320 323 325 326 328 331 332 333 334 334 335 336 336 337 337 338 339 341 342 344 344 343 343 342 340 339 339 339 338 336 335 333 332 330 328 325 322 318 314 311 307 304 301 300 299 300 300 299 297 294 289 283 279 275 269 263 257 252 248 246 246 247 248 248 248 247 246 245 245 243 243 244 245 241
323 325 326 329 332 334 335 335 336 337 338 339 339 339 339 340 341 343 344 345 345 344 343 343 341 339 338 338 338 337 337 337 337 336 334 330 326 322 318 315 312 309 305 303 301 300 300 300 299 296 291 285 280 276 273 268 262 256 250 246 245 245 246 246 246 246 245 243 243 243 241 241 242 243
324 326 329 332 335 336 337 338 339 340 341 341 342 342 342 343 343 344 345 345 346 346 344 343 342 340 338 338 339 340 342 342 341 341 339 335 330 325 321 319 317 315 311 308 306 304 301 300 298 297 293 288 281 275 272 269 264 260 254 248 245 243 244 244 243 244 244 242 241 242 242 240 240 242
325 329 333 336 338 338 339 340 341 342 344 344 345 345 345 345 345 346 346 346 346 346 346 344 343 342 342 342 342 343 345 347 346 344 342 338 333 327 323 321 320 317 314 311 309 307 304 302 300 298 296 292 284 275 270 267 263 260 258 252 246 243 242 242 241 242 244 242 239 240 241 241 239 240
328 333 336 338 339 340 341 342 343 344 345 346 347 347 348 347 347 348 348 348 348 348 347 347 347 346 346 347 348 347 347 348 349 349 347 344 339 333 329 326 325 322 316 311 309 307 305 303 301 299 297 294 290 279 269 265 261 258 256 255 250 245 242 242 240 239 242 243 240 238 238 239 238 238
332 337 339 340 340 341 343 343 344 345 347 348 349 350 351 350 350 350 350 351 351 351 350 350 351 352 353 352 352 351 350 348 349 350 351 351 346 341 338 336 335 331 324 317 313 310 307 304 302 300 297 295 292 285 273 264 260 255 253 253 252 247 243 241 240 238 238 241 241 239 237 237 237 236
337 340 341 342 343 343 343 343 345 347 348 350 352 353 353 353 353 353 353 354 355 355 356 356 357 359 359 357 356 354 353 352 351 352 353 354 353 349 345 344 342 337 331 325 318 313 309 307 304 302 299 295 292 288 278 268 261 254 250 249 251 250 245 240 239 237 236 237 240 240 237 237 237 235
339 341 342 343 343 343 343 344 346 348 351 354 356 355 355 355 356 356 356 358 358 359 1 2 3 4 3 1 359 357 355 355 356 357 357 355 354 353 352 352 350 345 339 334 327 320 313 309 307 304 302 299 295 291 284 274 265 257 249 246 248 251 248 241 238 237 235 235 236 238 237 237 237 234
340 341 342 343 343 343 344 346 348 350 353 356 358 357 357 357 357 358 359 0 2 4 6 7 7 7 5 4 3 1 1 1 1 0 359 357 356 356 356 357 357 354 351 348 343 338 329 315 308 306 303 301 299 295 290 283 272 260 251 245 244 247 250 245 238 235 235 234 234 236 236 236 237 235
340 342 343 344 344 344 346 348 350 353 355 357 357 357 359 0 1 2 2 3 5 8 10 11 10 9 8 7 7 7 7 6 4 3 1 359 358 358 359 360 1 1 359 356 353 351 346 332 319 312 306 301 298 295 291 287 281 269 255 246 243 244 249 248 241 235 234 233 233 234 236 235 237 238
342 344 345 345 346 347 349 351 353 355 356 356 357 357 359 2 4 6 7 8 10 12 14 15 13 12 11 10 10 11 11 10 9 7 5 2 0 0 360 1 3 3 3 0 356 354 354 348 338 328 319 307 299 294 291 287 283 275 262 250 244 242 246 250 246 237 233 232 232 233 235 235 236 236
344 346 347 347 349 349 350 353 355 356 356 356 358 0 3 5 7 8 10 12 15 16 17 17 17 15 14 13 12 12 13 14 13 13 10 7 5 4 2 3 4 4 4 3 359 357 358 358 354 346 337 324 308 297 292 288 283 276 267 256 247 242 243 247 248 241 234 231 231 232 233 234 235 235
345 347 348 349 351 351 353 356 356 356 357 358 2 7 10 11 12 13 14 15 17 19 20 19 18 18 16 15 15 14 14 15 15 16 15 14 11 9 7 6 6 4 4 4 3 1 360 2 5 2 356 347 333 316 301 291 285 278 269 260 252 245 243 244 246 243 236 231 231 231 232 233 234 235
346 347 348 349 352 354 357 359 358 358 359 2 8 13 15 17 18 19 19 20 21 22 22 21 20 19 18 18 17 17 16 16 16 16 17 18 17 15 13 12 9 7 6 6 6 5 4 6 9 11 9 3 355 342 326 311 299 287 274 262 254 248 244 242 244 244 238 232 230 230 231 232 233 235
347 346 348 351 354 358 2 2 1 2 3 7 13 16 18 21 22 22 23 24 24 24 23 22 21 20 19 19 19 19 18 18 17 17 18 19 19 19 18 17 15 13 12 10 10 9 11 14 13 13 12 9 3 355 346 334 323 310 291 271 259 251 244 239 240 243 240 234 230 230 230 231 231 232
345 345 348 352 357 4 8 7 7 8 11 17 20 19 19 21 21 22 24 25 25 25 23 22 21 20 19 19 18 19 19 18 18 18 18 18 19 20 20 18 18 18 17 16 14 14 16 20 19 16 13 11 9 5 357 348 340 329 312 289 270 258 247 238 235 239 241 236 231 229 230 230 231 231
343 343 347 354 3 12 15 14 14 18 23 27 27 24 23 23 21 22 23 24 24 23 22 21 19 18 18 18 17 17 18 17 17 17 17 17 17 19 20 20 19 19 19 20 19 17 17 20 22 22 17 14 14 11 4 357 349 338 325 305 283 268 253 239 233 235 241 238 231 228 229 230 231 231
341 343 349 359 15 23 23 21 23 29 34 35 32 30 28 26 24 24 24 23 23 22 20 18 17 16 16 15 15 16 16 16 16 16 17 17 16 17 19 19 19 19 20 21 21 20 19 19 21 23 22 20 19 15 8 3 358 348 336 318 297 278 259 243 236 236 240 237 230 227 227 229 230 231
341 344 353 11 30 35 30 29 33 38 40 38 34 31 29 27 25 25 24 23 22 20 18 16 14 14 13 13 13 13 13 14 15 16 16 16 16 17 17 17 17 18 19 21 20 20 21 20 20 19 20 21 23 20 14 8 6 2 355 338 313 292 270 252 241 239 241 237 228 224 225 226 228 230
342 347 6 33 45 42 37 37 42 43 42 38 34 31 27 25 23 23 22 21 19 17 15 13 12 11 11 10 10 11 11 12 13 14 14 14 15 16 17 16 16 16 18 19 19 19 21 22 21 20 19 19 21 22 20 15 12 13 12 4 344 313 285 265 249 242 241 233 223 222 225 225 225 229
339 353 41 59 57 50 46 46 45 43 40 37 33 30 25 23 22 21 20 18 16 14 12 10 9 8 8 8 8 9 9 9 10 10 11 12 12 13 15 15 15 16 17 17 18 19 20 21 21 21 20 20 20 22 23 21 20 20 19 16 11 357 314 271 255 249 243 230 219 219 223 225 226 229
332 60 87 79 69 61 57 52 46 42 38 34 30 25 22 20 19 18 17 14 12 10 9 7 6 5 5 6 7 7 7 8 8 7 7 8 9 10 12 12 12 13 14 15 16 18 19 20 20 20 19 19 19 21 23 25 25 26 24 22 22 23 25 21 246 249 246 236 226 222 222 223 226 229
234 127 112 96 84 76 66 55 46 40 35 30 25 20 17 16 15 14 12 10 8 7 6 4 3 3 4 4 5 5 6 6 6 5 4 4 4 5 8 9 10 11 12 13 14 16 18 19 20 20 18 17 18 19 21 23 26 27 27 28 28 27 32 45 67 220 236 231 227 226 227 227 226 227
180 149 130 114 102 89 70 54 44 37 31 25 20 15 12 11 10 9 7 5 4 4 3 2 1 1 2 2 3 3 3 4 3 2 3 2 2 2 3 4 6 7 9 10 13 14 16 18 20 20 19 17 17 18 19 20 23 26 29 30 32 31 32 37 46 57 70 192 217 224 229 232 231 228
183 163 146 131 120 102 74 52 39 31 24 18 13 9 7 6 5 4 2 1 1 1 1 360 359 359 359 360 360 360 359 359 359 359 359 360 1 2 1 1 1 2 3 6 9 12 14 16 18 19 19 18 16 17 19 19 20 23 27 30 33 35 35 35 38 43 50 53 55 229 230 237 240 233
186 173 160 148 137 116 77 47 32 22 14 9 4 2 2 1 0 360 359 358 358 358 358 358 357 357 357 356 356 356 355 354 354 355 355 356 357 359 0 1 1 360 360 1 4 7 10 12 15 16 17 17 16 16 19 20 20 21 24 27 31 35 38 39 37 37 41 42 35 23 350 281 261 247
191 181 172 164 158 134 60 27 15 7 2 358 356 356 357 356 356 356 355 355 356 356 356 355 354 354 354 353 352 352 351 352 352 352 352 353 354 355 356 357 359 359 360 360 1 3 4 7 10 12 14 15 14 14 17 19 20 21 23 24 26 30 34 38 40 40 40 40 37 32 23 9 325 273
196 190 184 179 181 192 335 346 349 350 350 350 350 351 351 351 351 351 352 352 353 353 352 352 352 351 351 350 350 350 350 350 350 350 351 351 352 352 352 352 354 355 358 360 1 2 2 3 5 8 10 11 11 12 14 17 19 21 23 23 24 26 28 31 35 38 40 40 40 40 34 25 13 340
201 198 194 195 205 231 278 311 330 339 342 344 344 345 345 346 346 347 348 349 350 350 349 349 349 349 349 349 349 349 349 349 349 350 350 350 350 350 349 349 350 351 353 355 358 360 2 2 2 3 5 7 8 8 11 14 17 19 21 22 23 25 25 26 28 31 33 35 37 41 42 37 28 15
206 204 205 212 227 248 279 306 323 332 336 337 338 338 339 341 342 343 344 346 346 347 347 347 347 347 348 348 348 348 348 349 349 349 350 349 349 348 347 347 348 348 349 350 352 354 358 360 0 0 0 2 4 6 9 12 13 16 18 19 20 23 24 24 25 26 26 28 30 34 39 40 37 30
209 211 215 227 242 261 284 303 317 325 328 330 331 332 334 336 338 340 341 343 344 344 345 345 346 346 346 346 346 347 347 348 349 349 350 350 349 349 348 348 347 347 347 348 349 350 352 354 356 358 358 359 1 4 6 9 10 12 15 16 17 19 21 22 23 23 22 24 25 27 31 36 37 34
213 217 225 237 251 268 284 299 311 317 321 323 325 328 331 333 335 337 338 340 341 342 343 344 344 344 345 345 345 345 346 348 348 349 349 350 350 350 350 349 348 347 348 349 350 350 351 352 352 354 355 357 359 2 4 5 6 8 11 12 13 15 16 18 19 19 20 21 21 22 25 27 29 30
221 226 236 247 257 270 283 296 306 311 315 319 322 324 327 329 332 334 335 337 339 340 341 343 343 343 343 343 344 345 345 347 348 349 349 350 350 351 351 352 351 351 350 350 351 351 351 352 352 352 354 355 357 360 1 1 2 5 7 8 8 10 11 11 12 14 17 18 19 19 21 22 22 23
230 236 245 255 264 274 284 294 302 307 312 316 319 322 324 326 329 331 333 335 338 339 340 341 341 341 341 342 343 344 345 346 348 349 350 350 351 352 353 354 356 356 355 354 355 355 355 356 356 356 357 357 358 358 358 358 359 1 2 1 2 5 6 6 7 8 10 12 14 16 18 19 19 18
239 244 252 259 267 276 284 292 299 305 310 314 317 319 322 324 327 330 332 334 336 337 338 338 338 339 340 340 342 344 346 347 347 348 349 351 351 352 354 357 359 1 1 1 2 3 3 3 3 3 4 4 3 1 359 357 356 354 354 355 357 358 359 360 2 3 4 6 8 10 12 14 15 15
245 249 255 262 269 277 285 293 300 305 310 313 315 317 320 323 325 328 330 332 334 335 335 335 336 337 339 340 342 344 346 348 348 348 348 349 351 352 354 356 359 2 3 4 4 4 4 4 5 5 5 5 4 2 360 359 358 356 354 354 354 353 353 353 355 357 359 360 2 4 6 7 8 10
251 256 262 268 275 282 288 294 300 305 308 311 314 317 319 322 324 326 328 329 330 332 333 334 335 337 340 341 343 344 345 347 348 347 347 347 349 350 351 352 354 356 358 359 359 359 359 358 358 358 357 356 356 355 356 357 360 360 358 355 353 352 351 350 349 349 351 353 354 356 358 359 360 1
258 264 270 274 279 285 290 295 300 304 308 311 314 316 318 320 322 324 325 326 328 329 332 334 336 339 341 342 342 342 343 343 345 345 344 344 344 345 345 346 346 346 346 347 348 349 348 348 347 347 346 346 346 347 348 348 348 350 351 351 351 351 351 349 347 345 344 344 346 347 349 350 351 352
265 269 274 278 283 287 291 296 301 305 309 311 313 314 316 318 320 321 323 325 327 329 332 335 337 339 340 340 340 340 339 339 340 341 341 339 339 339 339 338 337 336 335 335 335 336 336 337 337 338 338 338 338 338 338 338 338 338 339 340 342 343 344 345 345 343 341 340 339 339 339 340 342 343
269 274 278 282 286 290 294 298 303 306 308 309 311 313 314 316 318 320 322 324 327 329 332 334 336 337 337 337 336 336 335 335 336 337 336 335 333 332 332 331 329 329 328 327 326 326 327 328 328 328 329 330 331 330 330 331 331 331 330 330 330 330 332 335 336 337 337 336 335 335 333 332 332 333
274 278 282 286 290 294 297 300 303 305 307 308 310 312 314 315 317 320 322 324 326 328 331 333 333 334 334 333 333 333 332 331 331 331 329 328 327 326 325 324 323 323 323 322 321 321 321 321 322 321 322 323 323 323 323 324 325 325 325 325 324 322 322 324 326 328 328 328 329 330 330 328 326 324
Height
3152 3151 3150 3149 3147 3146 3144 3143 3141 3140 3138 3136 3135 3134 3132 3129 3128 3127 3125 3123 3121 3119 3115 3112 3110 3107 3104 3101 3099 3096 3093 3090 3088 3085 3083 3080 3077 3075 3073 3070 3068 3066 3064 3063 3062 3061 3060 3059 3058 3058 3058 3058 3059 3060 3061 3062 3062 3062 3064 3064 3065 3068 3068 3068 3069 3070 3071 3073 3074 3074 3076 3078 3079 3081
3150 3149 3148 3147 3145 3144 3142 3140 3139 3137 3136 3134 3133 3131 3129 3127 3125 3124 3122 3119 3117 3116 3114 3110 3108 3105 3102 3099 3096 3094 3091 3088 3085 3083 3080 3077 3074 3071 3069 3066 3064 3062 3060 3058 3057 3056 3055 3054 3053 3052 3052 3052 3053 3054 3055 3056 3056 3057 3058 3059 3060 3062 3063 3063 3064 3065 3066 3068 3068 3069 3070 3072 3074 3077
3148 3147 3146 3145 3143 3142 3140 3139 3137 3135 3134 3132 3131 3129 3127 3125 3123 3122 3119 3117 3114 3112 3110 3107 3105 3102 3100 3097 3094 3091 3088 3085 3082 3080 3077 3074 3071 3068 3065 3062 3060 3058 3055 3053 3051 3050 3050 3049 3049 3048 3047 3047 3047 3047 3048 3050 3051 3051 3052 3054 3055 3056 3057 3058 3059 3061 3062 3063 3064 3064 3065 3067 3069 3072
3146 3145 3144 3143 3142 3140 3139 3137 3135 3134 3132 3130 3128 3127 3125 3124 3122 3120 3118 3115 3112 3109 3106 3103 3101 3099 3096 3094 3091 3088 3085 3082 3079 3076 3073 3071 3068 3065 3062 3059 3056 3053 3051 3048 3046 3044 3044 3043 3043 3043 3042 3041 3041 3041 3041 3042 3044 3045 3046 3048 3049 3050 3051 3053 3055 3056 3057 3058 3059 3060 3061 3062 3063 3066
3145 3144 3142 3141 3140 3138 3137 3135 3134 3132 3131 3129 3127 3125 3124 3122 3120 3118 3116 3113 3111 3108 3105 3102 3098 3095 3093 3091 3089 3086 3084 3080 3077 3073 3070 3067 3063 3060 3057 3054 3051 3049 3046 3044 3041 3039 3038 3037 3037 3037 3036 3036 3035 3035 3035 3035 3037 3038 3040 3041 3042 3043 3045 3047 3049 3051 3053 3054 3055 3056 3057 3058 3059 3061
3143 3142 3141 3140 3138 3137 3135 3134 3133 3131 3129 3128 3126 3124 3122 3120 3118 3116 3114 3112 3109 3106 3104 3101 3098 3095 3092 3090 3087 3084 3081 3078 3074 3071 3067 3063 3059 3056 3053 3050 3047 3044 3041 3039 3037 3035 3033 3032 3031 3031 3030 3030 3030 3029 3029 3029 3030 3031 3033 3034 3036 3037 3038 3041 3043 3045 3047 3049 3050 3050 3051 3053 3054 3056
3142 3141 3140 3138 3137 3136 3134 3133 3132 3130 3129 3127 3125 3123 3121 3118 3116 3114 3112 3109 3107 3105 3102 3100 3098 3095 3092 3089 3086 3083 3079 3075 3071 3068 3064 3061 3056 3052 3049 3046 3044 3040 3037 3034 3032 3031 3029 3027 3025 3025 3024 3024 3024 3023 3023 3023 3024 3024 3025 3027 3029 3030 3032 3034 3036 3038 3040 3042 3044 3045 3046 3047 3049 3051
3140 3139 3138 3137 3136 3135 3133 3132 3131 3130 3128 3126 3125 3123 3120 3118 3115 3113 3110 3108 3106 3104 3102 3099 3096 3093 3090 3087 3084 3081 3078 3074 3070 3066 3062 3058 3054 3051 3047 3044 3041 3038 3034 3031 3028 3026 3024 3022 3020 3019 3018 3018 3018 3018 3017 3017 3017 3018 3019 3020 3022 3024 3025 3027 3030 3032 3033 3036 3038 3040 3041 3042 3044 3047
3139 3138 3137 3136 3135 3134 3133 3131 3130 3129 3127 3126 3124 3122 3120 3117 3114 3112 3110 3108 3105 3103 3101 3098 3095 3092 3089 3086 3082 3079 3075 3072 3069 3065 3060 3056 3052 3048 3045 3042 3039 3036 3032 3028 3025 3022 3019 3017 3015 3014 3012 3012 3011 3012 3012 3011 3011 3012 3013 3014 3015 3017 3019 3020 3023 3025 3027 3029 3032 3034 3036 3038 3039 3041
3138 3137 3136 3135 3134 3133 3132 3131 3130 3128 3127 3126 3124 3121 3119 3116 3114 3112 3110 3108 3106 3103 3100 3098 3095 3091 3088 3084 3081 3077 3073 3069 3066 3063 3060 3055 3051 3046 3043 3040 3036 3033 3029 3025 3021 3017 3015 3013 3011 3009 3007 3006 3005 3005 3005 3005 3005 3006 3007 3008 3009 3010 3012 3014 3016 3018 3021 3023 3025 3028 3030 3032 3034 3036
3137 3136 3135 3134 3133 3132 3131 3130 3129 3128 3127 3125 3123 3120 3118 3116 3114 3112 3110 3108 3106 3103 3100 3097 3094 3090 3087 3083 3080 3076 3072 3068 3065 3060 3056 3053 3049 3045 3041 3037 3034 3030 3026 3022 3018 3014 3010 3008 3006 3004 3002 3000 2999 2999 2999 2999 2999 3000 3001 3002 3003 3004 3006 3007 3009 3012 3014 3017 3019 3022 3024 3026 3028 3031
3136 3135 3135 3134 3133 3132 3131 3130 3129 3127 3126 3124 3122 3120 3118 3116 3114 3112 3110 3108 3105 3103 3099 3096 3093 3089 3086 3083 3079 3076 3072 3067 3062 3058 3053 3050 3046 3043 3039 3035 3031 3027 3023 3019 3015 3012 3008 3005 3001 2999 2997 2996 2994 2993 2993 2993 2994 2994 2995 2996 2997 2999 3000 3001 3003 3005 3008 3011 3013 3015 3018 3021 3023 3025
3135 3134 3134 3133 3132 3131 3130 3129 3128 3126 3125 3123 3122 3120 3118 3116 3114 3112 3109 3107 3104 3102 3098 3095 3092 3089 3086 3082 3078 3074 3070 3065 3060 3056 3053 3048 3044 3041 3037 3033 3029 3025 3021 3016 3012 3009 3006 3002 2999 2996 2993 2991 2990 2988 2988 2988 2989 2989 2989 2990 2992 2993 2994 2995 2997 2999 3002 3004 3007 3009 3012 3015 3017 3019
3134 3134 3133 3132 3131 3130 3129 3128 3126 3125 3124 3122 3121 3120 3118 3116 3114 3111 3109 3106 3103 3100 3097 3094 3091 3088 3085 3081 3077 3073 3069 3065 3060 3056 3051 3047 3043 3039 3036 3032 3028 3024 3019 3015 3010 3006 3003 2999 2996 2993 2990 2988 2986 2984 2983 2983 2983 2984 2984 2985 2986 2988 2989 2989 2991 2993 2995 2998 3001 3004 3006 3009 3012 3015
3134 3133 3132 3132 3131 3129 3128 3127 3125 3124 3123 3122 3121 3119 3117 3115 3113 3111 3108 3105 3102 3099 3096 3094 3091 3087 3084 3080 3077 3074 3070 3066 3061 3056 3051 3047 3042 3037 3033 3029 3026 3022 3018 3014 3009 3004 3000 2996 2993 2990 2987 2985 2982 2981 2979 2978 2978 2979 2979 2980 2981 2982 2983 2984 2985 2987 2990 2992 2995 2998 3001 3004 3007 3010
3133 3132 3132 3131 3130 3129 3128 3126 3125 3124 3123 3122 3120 3118 3116 3114 3111 3109 3107 3104 3101 3099 3096 3093 3090 3087 3084 3080 3077 3074 3070 3066 3062 3058 3053 3048 3042 3037 3032 3027 3023 3020 3016 3013 3008 3003 2999 2995 2991 2987 2984 2982 2979 2978 2976 2975 2974 2974 2974 2975 2976 2977 2978 2979 2980 2982 2984 2987 2990 2993 2996 2999 3002 3004
3132 3131 3131 3130 3129 3128 3127 3126 3125 3124 3123 3121 3120 3117 3115 3112 3110 3108 3105 3103 3100 3098 3095 3093 3090 3087 3084 3081 3077 3074 3070 3067 3063 3059 3055 3050 3044 3039 3033 3028 3023 3020 3016 3012 3008 3003 2998 2994 2990 2986 2982 2979 2976 2974 2973 2972 2971 2970 2970 2970 2971 2972 2973 2975 2976 2977 2979 2981 2984 2988 2991 2994 2997 2999
3131 3130 3130 3129 3129 3128 3127 3126 3125 3123 3122 3120 3118 3116 3114 3112 3110 3108 3106 3103 3101 3098 3096 3093 3090 3088 3085 3082 3078 3075 3071 3067 3064 3060 3056 3051 3046 3041 3036 3032 3027 3022 3018 3013 3009 3004 2999 2994 2989 2986 2982 2978 2975 2972 2970 2968 2967 2966 2965 2965 2966 2967 2968 2970 2971 2973 2974 2976 2979 2983 2986 2989 2992 2994
3130 3130 3129 3129 3128 3127 3126 3125 3124 3123 3121 3119 3117 3115 3114 3112 3110 3109 3106 3104 3101 3099 3096 3094 3091 3088 3086 3083 3079 3076 3073 3069 3065 3061 3056 3053 3049 3045 3040 3036 3032 3026 3020 3015 3010 3006 3000 2995 2990 2985 2982 2979 2975 2971 2969 2966 2964 2963 2962 2962 2962 2963 2964 2965 2967 2969 2970 2972 2975 2978 2981 2985 2988 2990
3130 3129 3129 3129 3128 3127 3126 3125 3124 3122 3120 3118 3116 3114 3113 3111 3110 3108 3106 3104 3101 3099 3096 3094 3091 3089 3086 3083 3080 3077 3074 3070 3067 3063 3059 3055 3051 3046 3042 3038 3033 3027 3022 3017 3012 3007 3002 2998 2993 2987 2983 2980 2976 2972 2969 2966 2963 2961 2960 2959 2959 2959 2960 2961 2963 2965 2967 2968 2971 2974 2977 2980 2983 2986
3129 3129 3129 3128 3127 3126 3126 3125 3123 3121 3119 3118 3116 3115 3113 3112 3110 3108 3106 3104 3101 3099 3097 3094 3092 3090 3087 3084 3081 3078 3074 3071 3067 3063 3059 3055 3051 3047 3043 3038 3033 3028 3024 3019 3013 3008 3004 3001 2997 2991 2986 2981 2977 2973 2969 2966 2963 2960 2958 2957 2957 2956 2957 2958 2960 2962 2964 2965 2967 2970 2974 2977 2980 2982
3129 3128 3128 3127 3127 3126 3125 3124 3123 3121 3120 3118 3117 3116 3115 3113 3112 3109 3107 3104 3102 3100 3098 3096 3093 3091 3088 3085 3082 3078 3075 3072 3068 3063 3059 3055 3051 3047 3043 3039 3035 3031 3026 3021 3016 3012 3007 3003 2998 2994 2990 2985 2979 2975 2971 2968 2964 2960 2957 2955 2955 2954 2955 2956 2957 2959 2961 2962 2964 2967 2971 2974 2976 2979
3128 3128 3127 3127 3126 3126 3125 3124 3122 3121 3120 3119 3118 3117 3116 3114 3113 3110 3108 3105 3103 3101 3099 3096 3094 3091 3089 3086 3082 3079 3075 3072 3068 3064 3060 3056 3052 3048 3043 3039 3036 3031 3026 3021 3017 3013 3008 3003 2998 2994 2990 2985 2981 2977 2973 2969 2966 2962 2958 2955 2953 2953 2953 2954 2955 2957 2958 2960 2962 2965 2968 2970 2973 2976
3127 3127 3127 3126 3126 3125 3124 3123 3122 3121 3120 3119 3118 3117 3116 3114 3112 3110 3108 3105 3103 3101 3099 3097 3094 3092 3089 3086 3083 3079 3076 3072 3068 3065 3061 3057 3053 3050 3046 3041 3037 3032 3027 3024 3020 3015 3010 3005 3001 2996 2992 2987 2983 2979 2975 2972 2968 2964 2959 2956 2953 2951 2950 2951 2952 2954 2956 2957 2960 2963 2965 2968 2970 2973
3127 3126 3126 3126 3125 3124 3124 3123 3122 3121 3120 3120 3119 3118 3116 3114 3112 3110 3107 3105 3103 3101 3099 3097 3095 3092 3090 3087 3083 3079 3076 3072 3068 3064 3061 3058 3054 3050 3047 3043 3040 3036 3031 3027 3023 3018 3013 3008 3004 3000 2996 2992 2988 2983 2979 2975 2971 2966 2962 2958 2954 2951 2949 2949 2950 2952 2954 2956 2958 2960 2963 2965 2968 2970
3126 3126 3125 3125 3124 3124 3123 3123 3122 3121 3120 3120 3119 3117 3116 3114 3112 3110 3107 3105 3104 3102 3100 3097 3095 3093 3090 3087 3083 3080 3076 3072 3068 3064 3061 3058 3055 3052 3048 3044 3040 3037 3033 3029 3025 3020 3016 3011 3006 3002 2998 2994 2991 2987 2983 2978 2973 2969 2966 2962 2957 2953 2950 2949 2949 2951 2953 2955 2957 2959 2961 2963 2965 2967
3125 3125 3125 3124 3124 3124 3123 3123 3122 3121 3120 3119 3118 3117 3115 3113 3111 3109 3107 3105 3104 3102 3100 3098 3096 3093 3090 3087 3084 3080 3077 3073 3070 3066 3062 3059 3055 3052 3049 3046 3042 3039 3035 3031 3027 3023 3018 3014 3009 3005 3000 2996 2993 2988 2984 2980 2975 2972 2968 2964 2961 2957 2953 2950 2950 2951 2953 2954 2956 2957 2959 2960 2962 2964
3124 3124 3124 3124 3123 3123 3123 3122 3121 3121 3120 3119 3118 3116 3115 3113 3111 3109 3107 3105 3104 3102 3100 3098 3095 3092 3089 3086 3083 3080 3077 3074 3071 3068 3065 3062 3057 3053 3049 3046 3044 3041 3038 3034 3030 3026 3022 3017 3012 3008 3004 3000 2995 2991 2986 2983 2979 2975 2972 2968 2964 2961 2957 2954 2952 2952 2953 2954 2955 2957 2958 2959 2961 2962
3124 3124 3124 3123 3123 3123 3122 3122 3121 3121 3120 3119 3118 3116 3114 3113 3111 3109 3107 3105 3103 3101 3099 3097 3095 3092 3089 3086 3083 3080 3077 3075 3073 3070 3067 3064 3060 3057 3053 3048 3044 3041 3038 3035 3031 3028 3024 3020 3016 3012 3008 3004 3000 2995 2991 2987 2983 2979 2975 2971 2967 2964 2961 2958 2956 2954 2954 2954 2955 2956 2957 2958 2959 2960
3123 3123 3123 3123 3122 3122 3122 3121 3121 3120 3119 3118 3117 3116 3114 3112 3110 3109 3107 3105 3103 3101 3099 3096 3094 3091 3088 3085 3083 3080 3078 3075 3072 3069 3067 3064 3061 3058 3055 3051 3047 3042 3038 3035 3031 3028 3025 3022 3018 3015 3011 3007 3004 2999 2995 2991 2987 2983 2979 2975 2972 2968 2965 2962 2960 2958 2956 2955 2956 2956 2956 2957 2958 2957
3122 3122 3122 3122 3122 3121 3121 3121 3120 3119 3119 3118 3116 3115 3113 3112 3110 3108 3107 3105 3103 3100 3098 3096 3093 3091 3088 3086 3083 3080 3077 3074 3072 3069 3066 3063 3060 3057 3054 3052 3049 3046 3041 3037 3033 3029 3026 3023 3020 3016 3013 3010 3007 3003 2999 2995 2991 2987 2982 2979 2975 2972 2969 2967 2965 2962 2960 2959 2958 2958 2958 2957 2957 2957
3121 3121 3121 3121 3121 3121 3120 3120 3119 3119 3118 3117 3115 3114 3113 3111 3109 3108 3106 3104 3102 3099 3097 3095 3093 3091 3088 3085 3083 3080 3077 3074 3071 3068 3065 3062 3059 3056 3053 3051 3048 3046 3043 3040 3036 3032 3028 3024 3021 3018 3015 3011 3008 3006 3002 2999 2994 2990 2986 2983 2979 2976 2973 2971 2968 2966 2964 2963 2962 2960 2959 2958 2958 2957
3120 3120 3120 3120 3120 3120 3120 3119 3119 3118 3117 3116 3114 3113 3112 3110 3108 3107 3105 3103 3101 3099 3097 3095 3092 3090 3088 3085 3082 3079 3076 3073 3070 3067 3064 3061 3058 3055 3053 3050 3047 3045 3042 3040 3037 3034 3031 3027 3023 3020 3017 3014 3011 3008 3004 3001 2997 2993 2990 2987 2984 2980 2977 2974 2972 2969 2968 2966 2964 2962 2961 2960 2959 2958
3119 3119 3119 3119 3119 3119 3119 3118 3117 3117 3116 3115 3113 3112 3111 3109 3107 3106 3104 3102 3099 3097 3095 3093 3091 3089 3086 3084 3081 3079 3076 3073 3070 3067 3064 3061 3058 3055 3052 3049 3046 3044 3041 3039 3036 3034 3032 3029 3026 3022 3018 3015 3012 3009 3006 3003 3000 2996 2993 2990 2987 2984 2981 2978 2975 2973 2971 2969 2967 2965 2963 2962 2961 2960
3118 3118 3118 3118 3118 3118 3117 3117 3116 3115 3114 3113 3112 3111 3110 3108 3106 3104 3102 3100 3098 3096 3094 3092 3090 3088 3085 3082 3080 3077 3074 3072 3069 3066 3063 3060 3058 3055 3051 3048 3045 3043 3040 3038 3035 3033 3030 3028 3026 3024 3021 3017 3014 3011 3008 3005 3002 2999 2996 2993 2990 2987 2984 2981 2979 2977 2975 2972 2970 2968 2966 2964 2963 2962
3117 3117 3117 3117 3116 3116 3116 3116 3115 3114 3113 3112 3111 3110 3108 3106 3105 3103 3101 3099 3097 3095 3093 3091 3088 3086 3084 3081 3078 3075 3073 3070 3067 3065 3062 3060 3057 3054 3052 3049 3045 3042 3040 3037 3035 3032 3029 3027 3024 3023 3021 3018 3015 3012 3009 3006 3004 3001 2998 2995 2992 2990 2987 2985 2983 2980 2978 2975 2973 2971 2968 2966 2965 2963
3115 3115 3115 3115 3115 3115 3115 3114 3113 3112 3112 3111 3109 3108 3107 3105 3103 3101 3099 3097 3095 3093 3091 3089 3087 3084 3082 3079 3077 3074 3071 3069 3066 3063 3061 3058 3056 3053 3051 3048 3045 3042 3039 3037 3034 3032 3029 3026 3024 3021 3019 3017 3015 3013 3010 3008 3005 3002 2999 2997 2994 2992 2989 2987 2985 2983 2981 2978 2976 2974 2971 2969 2967 2965
3114 3114 3114 3114 3114 3113 3113 3112 3112 3111 3110 3109 3108 3106 3105 3103 3101 3099 3097 3095 3093 3091 3089 3087 3085 3082 3080 3078 3075 3072 3070 3067 3065 3062 3060 3057 3054 3052 3050 3047 3045 3042 3040 3037 3034 3032 3029 3027 3024 3021 3018 3016 3014 3011 3009 3007 3005 3002 3000 2998 2996 2993 2991 2989 2987 2985 2983 2980 2978 2976 2974 2972 2970 2967
3112 3112 3112 3112 3112 3112 3111 3111 3110 3109 3108 3107 3106 3104 3103 3101 3099 3097 3095 3093 3091 3089 3087 3085 3083 3081 3078 3076 3074 3071 3068 3066 3063 3061 3059 3056 3053 3051 3049 3047 3045 3042 3040 3038 3035 3033 3030 3027 3025 3022 3019 3017 3014 3012 3010 3007 3005 3003 3001 2999 2997 2995 2993 2991 2989 2987 2985 2982 2980 2978 2976 2974 2972 2970
3110 3110 3110 3110 3110 3110 3109 3109 3108 3107 3106 3105 3104 3102 3101 3099 3097 3095 3093 3091 3089 3087 3085 3083 3081 3079 3077 3074 3072 3070 3067 3065 3062 3060 3058 3056 3053 3051 3049 3046 3044 3042 3040 3038 3036 3033 3030 3028 3025 3023 3021 3018 3017 3014 3012 3009 3006 3004 3001 2999 2998 2996 2994 2992 2990 2988 2986 2984 2982 2980 2978 2976 2975 2973
3109 3109 3109 3108 3108 3108 3107 3107 3106 3105 3104 3103 3101 3100 3098 3097 3095 3093 3091 3089 3087 3086 3084 3081 3079 3077 3075 3072 3070 3068 3066 3064 3062 3059 3057 3055 3053 3051 3049 3046 3044 3042 3040 3038 3035 3033 3031 3028 3026 3024 3022 3020 3018 3015 3012 3010 3008 3005 3003 3000 2998 2996 2994 2992 2990 2989 2987 2985 2983 2982 2980 2978 2976 2975
3107 3107 3106 3106 3106 3106 3105 3104 3103 3102 3101 3100 3099 3098 3096 3094 3093 3091 3089 3087 3085 3083 3081 3079 3077 3075 3073 3071 3068 3066 3064 3062 3060 3058 3056 3054 3052 3050 3048 3046 3044 3042 3040 3037 3035 3033 3030 3028 3026 3024 3022 3019 3017 3015 3013 3010 3008 3006 3004 3002 2999 2996 2994 2992 2991 2989 2987 2986 2984 2982 2981 2979 2977 2976
3105 3105 3104 3104 3104 3103 3103 3102 3101 3100 3099 3098 3097 3095 3094 3092 3091 3089 3087 3085 3083 3081 3079 3077 3075 3073 3071 3069 3067 3065 3063 3061 3059 3057 3055 3053 3051 3049 3047 3045 3043 3041 3038 3036 3034 3032 3030 3028 3026 3023 3021 3019 3016 3014 3012 3011 3008 3006 3004 3002 2999 2997 2995 2993 2991 2989 2987 2985 2984 2982 2981 2979 2978 2976
3103 3102 3102 3102 3101 3101 3100 3099 3098 3097 3097 3095 3094 3093 3091 3090 3088 3087 3085 3083 3081 3079 3077 3075 3073 3071 3069 3068 3066 3064 3062 3060 3058 3056 3054 3052 3050 3047 3045 3043 3041 3039 3037 3034 3032 3031 3029 3027 3025 3022 3020 3018 3016 3013 3011 3009 3007 3005 3003 3001 2999 2997 2995 2993 2991 2988 2986 2984 2983 2982 2980 2979 2977 2976
3100 3100 3100 3100 3099 3098 3098 3097 3096 3095 3094 3093 3092 3090 3089 3087 3085 3084 3082 3080 3079 3077 3075 3074 3072 3070 3068 3066 3064 3062 3060 3059 3057 3055 3052 3050 3048 3046 3044 3041 3039 3037 3035 3033 3030 3028 3027 3025 3023 3021 3018 3016 3014 3012 3009 3007 3005 3004 3002 3000 2998 2996 2993 2991 2990 2988 2986 2984 2982 2980 2979 2978 2977 2975